Location: Poprad
(49.0500°N, 20.3000°E)
Time: 07:42:16
(UTC+02:00)

SO-50 - Visible Passes

Search period start: 22 April 2024 00:00
Search period end: 02 May 2024 00:00
Orbit: 611 x 655 km, 64.6° (Epoch: 21 April)

Date Brightness Start Highest point End Pass type
(mag) Time Alt. Az. Time Alt. Az. Time Alt. Az.
22 Apr ? 20:25:27 10° NNW 20:28:36 18° NNE 20:31:43 10° ENE visible
22 Apr ? 22:05:11 10° NW 22:09:39 67° NE 22:10:40 49° ESE visible
22 Apr ? 23:46:16 10° WNW 23:48:05 17° W 23:48:05 17° W visible
23 Apr ? 20:47:07 10° NNW 20:50:57 27° NE 20:54:35 11° E visible
23 Apr ? 22:27:07 10° NW 22:31:32 63° SW 22:32:00 58° SSW visible
24 Apr ? 21:08:49 10° NNW 21:13:08 44° NE 21:15:56 20° ESE visible
24 Apr ? 22:49:19 10° WNW 22:53:14 30° WSW 22:53:22 30° WSW visible
25 Apr ? 21:30:37 10° NW 21:35:07 84° NE 21:37:19 29° SE visible
25 Apr ? 23:12:14 10° WNW 23:14:44 15° WSW 23:14:45 15° WSW visible
26 Apr ? 21:52:36 10° NW 21:56:55 48° WSW 21:58:44 29° S visible
27 Apr ? 20:34:10 10° NNW 20:38:35 55° NE 20:42:46 11° ESE visible
27 Apr ? 22:14:57 10° WNW 22:18:30 23° WSW 22:20:12 19° SSW visible
28 Apr ? 20:55:59 10° NW 21:00:27 77° SW 21:04:15 14° SSE visible
28 Apr ? 22:38:38 10° W 22:39:54 11° WSW 22:41:10 10° SW visible
29 Apr ? 21:18:03 10° NW 21:22:09 37° WSW 21:25:48 12° S visible
30 Apr ? 21:40:36 10° WNW 21:43:39 18° WSW 21:46:41 10° SSW visible
